sat.trackr.live / text

‹ back to catalog

STARLINK-4745

NORAD 53844 · 2022-114AC

PAYLOAD ACTIVE UNKNOWN

§ Identity

Operator
Country
US
Launch date
2022-09-19
Launch site
AFETR
Launch vehicle
Mass (kg)
RCS (m²)

Purposes: comms

External: N2YO · Heavens-Above · Gunter

§ Orbital elements

Epoch: 2026-09-20T22:00:03.000096Z

Period
94.93 min
Inclination
53.1593°
Eccentricity
0.0003315
Mean motion
15.16948430 rev/d
Perigee alt
512.8 km
Apogee alt
517.4 km
Semi-major
6,893.2 km
B*
9.4084e-4
RAAN
136.8905°
Arg perigee
104.3437°
Mean anomaly
14.6483°
Rev number
580

§ Raw data

STARLINK-47451 53844U 22114AC  26263.91670139  .00018525  00000+0  94084-3 0  99972 53844  53.1593 136.8905 0003315 104.3437  14.6483 15.16948430  5808

JSON: /api/v1/satellites/53844 · /tle

For live sub-satellite position, see the globe view (requires WebGL).

§ Visibility from observer

Set your observer location to see the next 7 days of passes ≥ 10°. The values pass through the URL so the page stays shareable.

No JS? Fill the form by hand. The geolocation button needs JavaScript.